DW4611 Weather Reports


Display with metric or nautical units.
time (UTC)temp
F
wind
direction
speed
MPH
gust
MPH
rain 1hr
in
rain 24hr
in
rain mn
in
humidity
%
barometer
mb
20171122163923 48 153 0.0 0.0 0.00 0.00 0.00 77 1019.0
20171122162425 49 153 0.0 0.0 0.00 0.00 0.00 76 1018.7
20171122160933 50 153 0.0 0.0 0.00 0.00 0.00 75 1018.5
20171122155421 50 153 0.0 0.0 0.00 0.00 0.00 75 1018.4
20171122153920 51 153 0.0 1.0 0.00 0.00 0.00 74 1018.4
20171122152431 51 154 0.0 5.0 0.00 0.00 0.00 73 1018.4
20171122150919 52 154 0.0 6.0 0.00 0.00 0.00 71 1018.3
20171122145423 52 126 4.0 10.0 0.00 0.00 0.00 70 1018.2
20171122143933 53 152 5.0 9.0 0.00 0.00 0.00 70 1018.1
20171122142420 53 166 4.0 7.0 0.00 0.00 0.00 69 1018.1
20171122140918 53 157 3.0 9.0 0.00 0.00 0.00 68 1018.0
20171122135418 53 167 3.0 9.0 0.00 0.00 0.00 67 1017.9
20171122133915 54 154 4.0 8.0 0.00 0.00 0.00 65 1017.9
20171122132419 56 169 4.0 8.0 0.00 0.00 0.00 63 1017.9
20171122130912 56 180 1.0 5.0 0.00 0.00 0.00 63 1018.0
20171122125408 55 171 3.0 7.0 0.00 0.00 0.00 64 1018.3
20171122123908 55 172 5.0 8.0 0.00 0.00 0.00 63 1018.4
20171122122412 55 155 3.0 8.0 0.00 0.00 0.00 63 1018.6
20171122120915 54 171 3.0 6.0 0.00 0.00 0.00 64 1018.8
20171122115403 54 179 4.0 7.0 0.00 0.00 0.00 65 1018.9
20171122113902 53 167 4.0 7.0 0.00 0.00 0.00 66 1019.1
20171122105349 51 159 1.0 4.0 0.00 0.00 0.00 70 1019.5
20171122103847 50 159 1.0 5.0 0.00 0.00 0.00 71 1019.7
20171122102345 50 159 2.0 6.0 0.00 0.00 0.00 72 1020.0
20171122100905 49 160 0.0 1.0 0.00 0.00 0.00 72 1020.1
20171122095340 48 157 2.0 6.0 0.00 0.00 0.00 71 1020.0
20171122093839 47 139 0.0 6.0 0.00 0.00 0.00 72 1020.2
20171122092334 47 103 0.0 5.0 0.00 0.00 0.00 72 1020.2
20171122090832 46 150 0.0 9.0 0.00 0.00 0.00 72 1020.1
20171122085339 45 315 0.0 5.0 0.00 0.00 0.00 73 1019.9
20171122083824 43 321 1.0 4.0 0.00 0.00 0.00 76 1019.8
20171122082351 42 321 0.0 5.0 0.00 0.00 0.00 78 1019.9
20171122080821 40 319 0.0 5.0 0.00 0.00 0.00 80 1019.9
20171122075320 39 317 3.0 6.0 0.00 0.00 0.00 82 1020.0
20171122073822 39 313 0.0 0.0 0.00 0.00 0.00 82 1020.0
20171122072319 39 313 0.0 1.0 0.00 0.00 0.00 81 1019.9
20171122070818 39 313 0.0 5.0 0.00 0.00 0.00 81 1019.7
20171122065331 39 308 1.0 5.0 0.00 0.00 0.00 81 1019.6
20171122063812 39 314 2.0 4.0 0.00 0.00 0.00 81 1019.3
20171122062312 39 314 2.0 5.0 0.00 0.00 0.00 81 1019.3
20171122060817 39 319 2.0 6.0 0.00 0.00 0.00 82 1019.2
20171122055310 39 326 0.0 4.0 0.00 0.00 0.00 83 1019.3
20171122053832 39 326 2.0 4.0 0.00 0.00 0.00 84 1019.2
20171122052306 39 326 0.0 0.0 0.00 0.00 0.00 84 1019.2
20171122050805 39 326 0.0 0.0 0.00 0.00 0.00 83 1019.0
20171122045303 39 326 0.0 0.0 0.00 0.00 0.00 83 1019.0
20171122043802 39 326 0.0 0.0 0.00 0.00 0.00 82 1018.9
20171122042310 39 326 0.0 1.0 0.00 0.00 0.00 82 1018.8
20171122040801 39 326 0.0 4.0 0.00 0.00 0.00 82 1018.7
20171122035308 39 326 0.0 4.0 0.00 0.00 0.00 82 1018.7
20171122033800 39 326 0.0 4.0 0.00 0.00 0.00 82 1018.6
20171122032324 40 326 0.0 0.0 0.00 0.00 0.00 81 1018.7
20171122030800 40 326 2.0 4.0 0.00 0.00 0.00 82 1018.7
20171122025257 40 326 1.0 4.0 0.00 0.00 0.00 82 1018.7
20171122023757 40 326 0.0 1.0 0.00 0.00 0.00 82 1018.8
20171122022309 40 326 0.0 3.0 0.00 0.00 0.00 81 1018.9
20171122020755 40 326 0.0 1.0 0.00 0.00 0.00 81 1019.1
20171122015336 41 326 0.0 4.0 0.00 0.00 0.00 80 1019.2
20171122013749 41 326 1.0 3.0 0.00 0.00 0.00 81 1019.1
20171122012246 41 326 0.0 0.0 0.00 0.00 0.00 81 1019.1
20171122010748 41 326 0.0 1.0 0.00 0.00 0.00 81 1019.1
20171122005244 41 326 0.0 3.0 0.00 0.00 0.00 80 1018.8
20171122003747 41 326 1.0 4.0 0.00 0.00 0.00 81 1018.8
20171122002245 41 326 0.0 1.0 0.00 0.00 0.00 80 1018.8
20171122000741 41 326 2.0 4.0 0.00 0.00 0.00 80 1018.9
20171121235248 42 326 0.0 4.0 0.00 0.00 0.00 80 1019.0
20171121233739 42 326 0.0 4.0 0.00 0.00 0.00 80 1018.9
20171121232242 42 326 3.0 5.0 0.00 0.00 0.00 81 1019.0
20171121230814 42 326 0.0 1.0 0.00 0.00 0.00 80 1019.0
20171121225231 42 326 1.0 4.0 0.00 0.00 0.00 81 1018.9
20171121223733 42 315 3.0 6.0 0.00 0.00 0.00 81 1018.8
20171121222232 42 262 2.0 4.0 0.00 0.00 0.00 81 1018.8
20171121220738 42 256 0.0 4.0 0.00 0.00 0.00 81 1018.7
20171121215232 42 165 1.0 4.0 0.00 0.00 0.00 82 1018.7
20171121213744 42 165 1.0 4.0 0.00 0.00 0.00 82 1018.7
20171121212235 42 165 3.0 5.0 0.00 0.00 0.00 84 1018.6
20171121210747 42 165 0.0 1.0 0.00 0.00 0.00 84 1018.6
20171121205227 42 165 0.0 0.0 0.00 0.00 0.00 84 1018.6
20171121203732 42 165 0.0 0.0 0.00 0.00 0.00 81 1018.5
20171121202226 42 165 3.0 5.0 0.00 0.00 0.00 83 1018.4
20171121200727 42 165 0.0 0.0 0.00 0.00 0.00 82 1018.3
20171121195233 43 165 0.0 4.0 0.00 0.00 0.00 83 1018.2
20171121193725 42 165 0.0 2.0 0.00 0.00 0.00 82 1018.1
20171121192224 43 165 0.0 1.0 0.00 0.00 0.00 81 1018.1
20171121190731 43 165 0.0 1.0 0.00 0.00 0.00 81 1018.1
20171121185229 44 165 0.0 0.0 0.00 0.00 0.00 81 1018.1
20171121183729 44 165 0.0 0.0 0.00 0.00 0.00 80 1018.1
20171121182228 44 165 0.0 0.0 0.00 0.00 0.00 80 1017.9
20171121180720 44 165 0.0 0.0 0.00 0.00 0.00 79 1017.9
20171121175218 45 165 0.0 0.0 0.00 0.00 0.00 78 1017.8
20171121173717 45 165 0.0 0.0 0.00 0.00 0.00 78 1017.8
20171121172227 46 165 0.0 0.0 0.00 0.00 0.00 77 1017.6
20171121170724 46 165 0.0 1.0 0.00 0.00 0.00 77 1017.6